Tracking 28794 objects as of 22-Apr-2024
HD Live streaming from Space Station
objects crossing your sky now

CSC-2

Track CSC-2 now!
10-day predictions
CSC-2 is classified as:


NORAD ID: 58021
Int'l Code: 2023-155F
Perigee: 562.9 km
Apogee: 574.7 km
Inclination: 97.6 °
Period: 95.9 minutes
Semi major axis: 6939 km
RCS: Unknown
Launch date: October 9, 2023
Source: Netherlands (NETH)
Launch site: FRENCH GUIANA (FRGUI)

Uplink (MHz):
Downlink (MHz): 401.250
Beacon (MHz):
Mode: 1200bps BPSK
Call sign: CSC2
Status: Active

Your satellite tracking list
Your tracking list is empty




NASA's NSSDC Master Catalog

Two Line Element Set (TLE):
1 58021U 23155F   24112.75928942  .00016138  00000-0  12430-2 0  9999
2 58021  97.6255 183.4920 0008516  62.8905 297.3188 15.01695509 29335
Source of the keplerian elements: AFSPC